| time (UTC) | temp F | wind direction | speed MPH | gust MPH | rain 1hr in | rain 24hr in | rain mn in | humidity % | barometer mb |
| 20260510012018 | 60 | 357 | 0.0 | 0.0 | 0.00 | 0.00 | 0.00 | 981.8 | |
| 20260510011538 | 60 | 357 | 0.0 | 0.0 | 0.00 | 0.00 | 0.00 | 980.8 | |
| 20260510011020 | 60 | 357 | 0.0 | 0.0 | 0.00 | 0.00 | 0.00 | 980.8 | |
| 20260510010536 | 61 | 5 | 0.0 | 0.0 | 0.00 | 0.00 | 0.00 | 980.8 | |
| 20260510010024 | 61 | 320 | 0.0 | 0.0 | 0.00 | 0.00 | 0.00 | 980.8 | |
| 20260510005524 | 62 | 311 | 0.0 | 0.0 | 0.00 | 0.00 | 0.00 | 980.8 | |
| 20260510005013 | 62 | 340 | 0.0 | 0.0 | 0.00 | 0.00 | 0.00 | 980.8 | |
| 20260510004517 | 62 | 349 | 0.0 | 2.0 | 0.00 | 0.00 | 0.00 | 980.8 | |
| 20260510004013 | 63 | 0 | 0.0 | 2.0 | 0.00 | 0.00 | 0.00 | 980.8 | |
| 20260510003523 | 63 | 319 | 0.0 | 0.0 | 0.00 | 0.00 | 0.00 | 980.8 | |
| 20260510003015 | 63 | 342 | 0.0 | 0.0 | 0.00 | 0.00 | 0.00 | 980.8 | |
| 20260510002513 | 64 | 12 | 0.0 | 3.0 | 0.00 | 0.00 | 0.00 | 980.8 | |
| 20260510002017 | 64 | 17 | 2.0 | 0.0 | 0.00 | 0.00 | 0.00 | 980.8 | |
| 20260510001514 | 64 | 338 | 0.0 | 5.0 | 0.00 | 0.00 | 0.00 | 979.8 | |
| 20260510001013 | 65 | 332 | 2.0 | 0.0 | 0.00 | 0.00 | 0.00 | 979.8 | |
| 20260510000516 | 65 | 337 | 0.0 | 0.0 | 0.00 | 0.00 | 0.00 | 979.8 | |
| 20260510000016 | 65 | 4 | 0.0 | 0.0 | 0.00 | 0.00 | 0.00 | 979.8 | |
| 20260509235515 | 66 | 11 | 0.0 | 0.0 | 0.00 | 0.00 | 0.00 | 979.8 | |
| 20260509235014 | 66 | 312 | 0.0 | 5.0 | 0.00 | 0.00 | 0.00 | 979.8 | |
| 20260509234514 | 66 | 307 | 0.0 | 0.0 | 0.00 | 0.00 | 0.00 | 979.8 | |
| 20260509234036 | 66 | 326 | 3.0 | 4.0 | 0.00 | 0.00 | 0.00 | 979.8 | |
| 20260509233514 | 66 | 340 | 3.0 | 4.0 | 0.00 | 0.00 | 0.00 | 979.8 | |
| 20260509233016 | 67 | 316 | 4.0 | 6.0 | 0.00 | 0.00 | 0.00 | 978.8 | |
| 20260509232522 | 67 | 9 | 3.0 | 3.0 | 0.00 | 0.00 | 0.00 | 978.8 | |
| 20260509232015 | 67 | 262 | 2.0 | 6.0 | 0.00 | 0.00 | 0.00 | 978.8 | |
| 20260509231515 | 68 | 345 | 0.0 | 0.0 | 0.00 | 0.00 | 0.00 | 978.8 | |
| 20260509231014 | 68 | 283 | 4.0 | 0.0 | 0.00 | 0.00 | 0.00 | 978.8 | |
| 20260509230518 | 68 | 301 | 2.0 | 3.0 | 0.00 | 0.00 | 0.00 | 978.8 | |
| 20260509230015 | 68 | 333 | 4.0 | 0.0 | 0.00 | 0.00 | 0.00 | 978.8 | |
| 20260509225534 | 68 | 342 | 2.0 | 10.0 | 0.00 | 0.00 | 0.00 | 978.8 | |
| 20260509225014 | 68 | 335 | 3.0 | 0.0 | 0.00 | 0.00 | 0.00 | 978.8 | |
| 20260509224515 | 68 | 339 | 4.0 | 0.0 | 0.00 | 0.00 | 0.00 | 978.8 | |
| 20260509224014 | 69 | 274 | 4.0 | 4.0 | 0.00 | 0.00 | 0.00 | 978.8 | |
| 20260509223513 | 69 | 331 | 3.0 | 0.0 | 0.00 | 0.00 | 0.00 | 978.8 | |
| 20260509223014 | 69 | 265 | 3.0 | 4.0 | 0.00 | 0.00 | 0.00 | 978.8 | |
| 20260509222535 | 69 | 270 | 4.0 | 0.0 | 0.00 | 0.00 | 0.00 | 978.8 | |
| 20260509222014 | 69 | 41 | 5.0 | 5.0 | 0.00 | 0.00 | 0.00 | 978.8 | |
| 20260509221517 | 69 | 281 | 3.0 | 2.0 | 0.00 | 0.00 | 0.00 | 977.8 | |
| 20260509221014 | 69 | 250 | 6.0 | 4.0 | 0.00 | 0.00 | 0.00 | 977.8 | |
| 20260509220521 | 70 | 332 | 7.0 | 8.0 | 0.00 | 0.00 | 0.00 | 977.8 | |
| 20260509220024 | 70 | 280 | 5.0 | 5.0 | 0.00 | 0.00 | 0.00 | 977.8 | |
| 20260509215515 | 70 | 296 | 4.0 | 5.0 | 0.00 | 0.00 | 0.00 | 977.8 | |
| 20260509215013 | 70 | 327 | 5.0 | 4.0 | 0.00 | 0.00 | 0.00 | 977.8 | |
| 20260509214535 | 70 | 357 | 5.0 | 10.0 | 0.00 | 0.00 | 0.00 | 977.8 | |
| 20260509214016 | 71 | 294 | 5.0 | 10.0 | 0.00 | 0.00 | 0.00 | 977.8 | |
| 20260509213514 | 71 | 329 | 5.0 | 7.0 | 0.00 | 0.00 | 0.00 | 977.8 | |
| 20260509213025 | 71 | 329 | 4.0 | 13.0 | 0.00 | 0.00 | 0.00 | 976.8 | |
| 20260509212514 | 72 | 305 | 4.0 | 5.0 | 0.00 | 0.00 | 0.00 | 976.8 | |
| 20260509212018 | 72 | 320 | 2.0 | 4.0 | 0.00 | 0.00 | 0.00 | 976.8 | |
| 20260509211521 | 72 | 187 | 4.0 | 5.0 | 0.00 | 0.00 | 0.00 | 976.8 | |
| 20260509211037 | 72 | 94 | 6.0 | 0.0 | 0.00 | 0.00 | 0.00 | 976.8 | |
| 20260509210513 | 72 | 142 | 4.0 | 4.0 | 0.00 | 0.00 | 0.00 | 976.8 | |
| 20260509210026 | 72 | 272 | 7.0 | 5.0 | 0.00 | 0.00 | 0.00 | 976.8 | |
| 20260509205513 | 72 | 24 | 5.0 | 3.0 | 0.00 | 0.00 | 0.00 | 976.8 | |
| 20260509205020 | 72 | 259 | 7.0 | 3.0 | 0.00 | 0.00 | 0.00 | 976.8 | |
| 20260509204536 | 72 | 314 | 4.0 | 7.0 | 0.00 | 0.00 | 0.00 | 976.8 | |
| 20260509204024 | 72 | 0 | 4.0 | 4.0 | 0.00 | 0.00 | 0.00 | 976.8 | |
| 20260509203517 | 72 | 337 | 7.0 | 5.0 | 0.00 | 0.00 | 0.00 | 976.8 | |
| 20260509203015 | 72 | 319 | 4.0 | 5.0 | 0.00 | 0.00 | 0.00 | 976.8 | |
| 20260509202514 | 71 | 1 | 3.0 | 3.0 | 0.00 | 0.00 | 0.00 | 976.8 | |
| 20260509202014 | 71 | 204 | 4.0 | 4.0 | 0.00 | 0.00 | 0.00 | 976.8 | |
| 20260509201535 | 71 | 327 | 4.0 | 6.0 | 0.00 | 0.00 | 0.00 | 976.8 | |
| 20260509201014 | 72 | 228 | 4.0 | 4.0 | 0.00 | 0.00 | 0.00 | 976.8 | |
| 20260509200516 | 72 | 212 | 4.0 | 0.0 | 0.00 | 0.00 | 0.00 | 976.8 | |
| 20260509200015 | 72 | 138 | 4.0 | 3.0 | 0.00 | 0.00 | 0.00 | 976.8 | |
| 20260509195522 | 71 | 214 | 4.0 | 5.0 | 0.00 | 0.00 | 0.00 | 976.8 | |
| 20260509195015 | 72 | 310 | 4.0 | 4.0 | 0.00 | 0.00 | 0.00 | 976.8 | |
| 20260509194514 | 72 | 225 | 5.0 | 6.0 | 0.00 | 0.00 | 0.00 | 976.8 | |
| 20260509194013 | 73 | 261 | 7.0 | 5.0 | 0.00 | 0.00 | 0.00 | 976.8 | |
| 20260509193513 | 72 | 337 | 2.0 | 6.0 | 0.00 | 0.00 | 0.00 | 976.8 | |
| 20260509193024 | 72 | 242 | 4.0 | 0.0 | 0.00 | 0.00 | 0.00 | 976.8 | |
| 20260509192515 | 72 | 180 | 6.0 | 8.0 | 0.00 | 0.00 | 0.00 | 976.8 | |
| 20260509192019 | 72 | 219 | 5.0 | 5.0 | 0.00 | 0.00 | 0.00 | 976.8 | |
| 20260509191514 | 72 | 187 | 8.0 | 6.0 | 0.00 | 0.00 | 0.00 | 976.8 | |
| 20260509191019 | 72 | 228 | 5.0 | 11.0 | 0.00 | 0.00 | 0.00 | 976.8 | |
| 20260509190518 | 73 | 166 | 9.0 | 8.0 | 0.00 | 0.00 | 0.00 | 976.8 | |
| 20260509190015 | 73 | 337 | 3.0 | 4.0 | 0.00 | 0.00 | 0.00 | 976.8 | |
| 20260509185514 | 73 | 159 | 4.0 | 5.0 | 0.00 | 0.00 | 0.00 | 976.8 | |
| 20260509185013 | 73 | 336 | 3.0 | 3.0 | 0.00 | 0.00 | 0.00 | 976.8 | |
| 20260509184515 | 73 | 249 | 6.0 | 10.0 | 0.00 | 0.00 | 0.00 | 976.8 | |
| 20260509184014 | 73 | 32 | 6.0 | 4.0 | 0.00 | 0.00 | 0.00 | 976.8 | |
| 20260509183518 | 72 | 176 | 8.0 | 4.0 | 0.00 | 0.00 | 0.00 | 976.8 | |
| 20260509183021 | 71 | 343 | 3.0 | 5.0 | 0.00 | 0.00 | 0.00 | 976.8 | |
| 20260509182518 | 71 | 242 | 4.0 | 4.0 | 0.00 | 0.00 | 0.00 | 976.8 | |
| 20260509182013 | 70 | 235 | 5.0 | 3.0 | 0.00 | 0.00 | 0.00 | 976.8 | |
| 20260509181516 | 69 | 222 | 6.0 | 6.0 | 0.00 | 0.00 | 0.00 | 976.8 | |
| 20260509181014 | 67 | 189 | 3.0 | 6.0 | 0.00 | 0.00 | 0.00 | 976.8 | |
| 20260509180514 | 66 | 145 | 0.0 | 4.0 | 0.00 | 0.00 | 0.00 | 976.8 | |
| 20260509180014 | 66 | 222 | 2.0 | 0.0 | 0.00 | 0.00 | 0.00 | 976.8 | |
| 20260509175514 | 67 | 213 | 4.0 | 5.0 | 0.00 | 0.00 | 0.00 | 976.8 | |
| 20260509175017 | 68 | 201 | 7.0 | 4.0 | 0.00 | 0.00 | 0.00 | 976.8 | |
| 20260509174514 | 68 | 215 | 4.0 | 3.0 | 0.00 | 0.00 | 0.00 | 976.8 | |
| 20260509174015 | 69 | 320 | 0.0 | 0.0 | 0.00 | 0.00 | 0.00 | 976.8 | |
| 20260509173523 | 70 | 194 | 0.0 | 4.0 | 0.00 | 0.00 | 0.00 | 976.8 | |
| 20260509173015 | 69 | 202 | 0.0 | 0.0 | 0.00 | 0.00 | 0.00 | 977.8 | |
| 20260509172521 | 68 | 269 | 3.0 | 0.0 | 0.00 | 0.00 | 0.00 | 977.8 | |
| 20260509172035 | 67 | 337 | 2.0 | 4.0 | 0.00 | 0.00 | 0.00 | 977.8 | |
| 20260509171513 | 67 | 315 | 0.0 | 7.0 | 0.00 | 0.00 | 0.00 | 976.8 | |
| 20260509171016 | 67 | 298 | 2.0 | 4.0 | 0.00 | 0.00 | 0.00 | 976.8 | |
| 20260509170515 | 68 | 15 | 4.0 | 6.0 | 0.00 | 0.00 | 0.00 | 976.8 | |
| 20260509170015 | 68 | 357 | 3.0 | 3.0 | 0.00 | 0.00 | 0.00 | 976.8 | |
| 20260509165514 | 68 | 325 | 4.0 | 5.0 | 0.00 | 0.00 | 0.00 | 976.8 | |
| 20260509165014 | 68 | 331 | 5.0 | 6.0 | 0.00 | 0.00 | 0.00 | 976.8 | |
| 20260509164514 | 68 | 325 | 0.0 | 9.0 | 0.00 | 0.00 | 0.00 | 976.8 | |
| 20260509164013 | 67 | 324 | 3.0 | 0.0 | 0.00 | 0.00 | 0.00 | 976.8 | |
| 20260509163514 | 67 | 225 | 3.0 | 6.0 | 0.00 | 0.00 | 0.00 | 976.8 | |
| 20260509163013 | 67 | 136 | 2.0 | 5.0 | 0.00 | 0.00 | 0.00 | 976.8 | |
| 20260509162514 | 67 | 329 | 3.0 | 3.0 | 0.00 | 0.00 | 0.00 | 976.8 | |
| 20260509162014 | 66 | 157 | 3.0 | 3.0 | 0.00 | 0.00 | 0.00 | 976.8 | |
| 20260509161518 | 67 | 232 | 3.0 | 6.0 | 0.00 | 0.00 | 0.00 | 976.8 | |
| 20260509161014 | 67 | 229 | 4.0 | 0.0 | 0.00 | 0.00 | 0.00 | 976.8 | |
| 20260509160513 | 66 | 273 | 3.0 | 0.0 | 0.00 | 0.00 | 0.00 | 976.8 | |
| 20260509160034 | 66 | 166 | 2.0 | 0.0 | 0.00 | 0.00 | 0.00 | 976.8 | |
| 20260509155516 | 66 | 198 | 0.0 | 3.0 | 0.00 | 0.00 | 0.00 | 976.8 | |
| 20260509155014 | 67 | 243 | 4.0 | 4.0 | 0.00 | 0.00 | 0.00 | 976.8 | |
| 20260509154535 | 67 | 202 | 4.0 | 4.0 | 0.00 | 0.00 | 0.00 | 976.8 | |
| 20260509154014 | 67 | 202 | 4.0 | 4.0 | 0.00 | 0.00 | 0.00 | 976.8 | |
| 20260509153514 | 67 | 213 | 0.0 | 4.0 | 0.00 | 0.00 | 0.00 | 976.8 | |
| 20260509153018 | 68 | 215 | 0.0 | 3.0 | 0.00 | 0.00 | 0.00 | 975.8 | |
| 20260509152514 | 68 | 241 | 0.0 | 4.0 | 0.00 | 0.00 | 0.00 | 975.8 | |
| 20260509152016 | 68 | 206 | 4.0 | 6.0 | 0.00 | 0.00 | 0.00 | 975.8 | |
| 20260509151514 | 68 | 241 | 3.0 | 6.0 | 0.00 | 0.00 | 0.00 | 975.8 | |
| 20260509151014 | 69 | 204 | 6.0 | 4.0 | 0.00 | 0.00 | 0.00 | 975.8 | |
| 20260509150513 | 69 | 192 | 5.0 | 6.0 | 0.00 | 0.00 | 0.00 | 975.8 | |
| 20260509150016 | 68 | 203 | 3.0 | 5.0 | 0.00 | 0.00 | 0.00 | 975.8 | |
| 20260509145518 | 68 | 193 | 3.0 | 5.0 | 0.00 | 0.00 | 0.00 | 975.8 | |
| 20260509145015 | 68 | 156 | 4.0 | 3.0 | 0.00 | 0.00 | 0.00 | 975.8 | |
| 20260509144516 | 68 | 147 | 0.0 | 8.0 | 0.00 | 0.00 | 0.00 | 975.8 | |
| 20260509144014 | 67 | 176 | 4.0 | 0.0 | 0.00 | 0.00 | 0.00 | 975.8 | |
| 20260509143515 | 66 | 233 | 0.0 | 5.0 | 0.00 | 0.00 | 0.00 | 975.8 | |
| 20260509143014 | 66 | 181 | 4.0 | 6.0 | 0.00 | 0.00 | 0.00 | 975.8 | |
| 20260509142517 | 66 | 262 | 4.0 | 6.0 | 0.00 | 0.00 | 0.00 | 975.8 | |
| 20260509142013 | 65 | 160 | 4.0 | 0.0 | 0.00 | 0.00 | 0.00 | 975.8 | |
| 20260509141514 | 65 | 333 | 0.0 | 0.0 | 0.00 | 0.00 | 0.00 | 975.8 | |
| 20260509141016 | 64 | 222 | 6.0 | 3.0 | 0.00 | 0.00 | 0.00 | 975.8 | |
| 20260509140519 | 64 | 226 | 4.0 | 5.0 | 0.00 | 0.00 | 0.00 | 975.8 | |
| 20260509140017 | 63 | 244 | 3.0 | 6.0 | 0.00 | 0.00 | 0.00 | 975.8 | |
| 20260509135519 | 63 | 253 | 4.0 | 8.0 | 0.00 | 0.00 | 0.00 | 975.8 | |
| 20260509135014 | 62 | 136 | 0.0 | 0.0 | 0.00 | 0.00 | 0.00 | 975.8 | |
| 20260509134518 | 62 | 208 | 3.0 | 0.0 | 0.00 | 0.00 | 0.00 | 975.8 | |
| 20260509134013 | 62 | 156 | 3.0 | 4.0 | 0.00 | 0.00 | 0.00 | 975.8 | |
| 20260509133535 | 62 | 179 | 2.0 | 0.0 | 0.00 | 0.00 | 0.00 | 975.8 | |
| 20260509133015 | 61 | 221 | 2.0 | 3.0 | 0.00 | 0.00 | 0.00 | 975.8 | |
| 20260509132514 | 61 | 226 | 2.0 | 0.0 | 0.00 | 0.00 | 0.00 | 975.8 | |
| 20260509132013 | 61 | 209 | 4.0 | 0.0 | 0.00 | 0.00 | 0.00 | 975.8 | |
| 20260509131514 | 60 | 251 | 0.0 | 4.0 | 0.00 | 0.00 | 0.00 | 975.8 | |
| 20260509131013 | 60 | 228 | 3.0 | 3.0 | 0.00 | 0.00 | 0.00 | 975.8 | |
| 20260509130522 | 60 | 232 | 4.0 | 5.0 | 0.00 | 0.00 | 0.00 | 975.8 | |
| 20260509130013 | 59 | 232 | 3.0 | 0.0 | 0.00 | 0.00 | 0.00 | 975.8 | |
| 20260509125514 | 58 | 286 | 3.0 | 5.0 | 0.00 | 0.00 | 0.00 | 975.8 | |
| 20260509125014 | 58 | 222 | 4.0 | 0.0 | 0.00 | 0.00 | 0.00 | 975.8 | |
| 20260509124513 | 57 | 226 | 5.0 | 5.0 | 0.00 | 0.00 | 0.00 | 975.8 | |
| 20260509124014 | 57 | 248 | 2.0 | 3.0 | 0.00 | 0.00 | 0.00 | 975.8 | |
| 20260509123515 | 56 | 225 | 0.0 | 6.0 | 0.00 | 0.00 | 0.00 | 975.8 | |
| 20260509123013 | 56 | 223 | 2.0 | 7.0 | 0.00 | 0.00 | 0.00 | 974.8 | |
| 20260509122513 | 56 | 225 | 3.0 | 0.0 | 0.00 | 0.00 | 0.00 | 974.8 | |
| 20260509122014 | 55 | 200 | 5.0 | 5.0 | 0.00 | 0.00 | 0.00 | 974.8 | |
| 20260509121514 | 55 | 200 | 4.0 | 3.0 | 0.00 | 0.00 | 0.00 | 974.8 | |
| 20260509121013 | 54 | 227 | 4.0 | 3.0 | 0.00 | 0.00 | 0.00 | 974.8 | |
| 20260509120514 | 54 | 206 | 2.0 | 3.0 | 0.00 | 0.00 | 0.00 | 974.8 | |
| 20260509120013 | 54 | 233 | 0.0 | 0.0 | 0.00 | 0.00 | 0.00 | 975.8 | |
| 20260509115517 | 53 | 223 | 4.0 | 4.0 | 0.00 | 0.00 | 0.00 | 975.8 | |
| 20260509115013 | 53 | 196 | 0.0 | 0.0 | 0.00 | 0.00 | 0.00 | 975.8 | |
| 20260509114517 | 53 | 225 | 3.0 | 2.0 | 0.00 | 0.00 | 0.00 | 974.8 | |
| 20260509114014 | 53 | 250 | 3.0 | 3.0 | 0.00 | 0.00 | 0.00 | 974.8 | |
| 20260509113514 | 53 | 206 | 0.0 | 0.0 | 0.00 | 0.00 | 0.00 | 974.8 | |
| 20260509113025 | 53 | 252 | 0.0 | 0.0 | 0.00 | 0.00 | 0.00 | 974.8 | |
| 20260509112516 | 53 | 206 | 0.0 | 0.0 | 0.00 | 0.00 | 0.00 | 974.8 | |
| 20260509112024 | 53 | 240 | 2.0 | 0.0 | 0.00 | 0.00 | 0.00 | 974.8 | |
| 20260509111539 | 53 | 209 | 2.0 | 6.0 | 0.00 | 0.00 | 0.00 | 974.8 | |
| 20260509111015 | 53 | 194 | 0.0 | 0.0 | 0.00 | 0.00 | 0.00 | 974.8 | |
| 20260509110513 | 53 | 203 | 0.0 | 0.0 | 0.00 | 0.00 | 0.00 | 974.8 | |
| 20260509110024 | 53 | 198 | 4.0 | 0.0 | 0.00 | 0.00 | 0.00 | 974.8 | |
| 20260509105514 | 53 | 197 | 0.0 | 4.0 | 0.00 | 0.00 | 0.00 | 974.8 | |
| 20260509105013 | 53 | 230 | 0.0 | 0.0 | 0.00 | 0.00 | 0.00 | 974.8 | |
| 20260509104514 | 53 | 241 | 0.0 | 3.0 | 0.00 | 0.00 | 0.00 | 974.8 | |
| 20260509104016 | 53 | 197 | 0.0 | 0.0 | 0.00 | 0.00 | 0.00 | 974.8 | |
| 20260509103522 | 53 | 241 | 0.0 | 0.0 | 0.00 | 0.00 | 0.00 | 974.8 | |
| 20260509103015 | 53 | 230 | 0.0 | 0.0 | 0.00 | 0.00 | 0.00 | 974.8 | |
| 20260509102521 | 53 | 198 | 0.0 | 0.0 | 0.00 | 0.00 | 0.00 | 974.8 | |
| 20260509102014 | 53 | 191 | 0.0 | 0.0 | 0.00 | 0.00 | 0.00 | 974.8 | |
| 20260509101540 | 53 | 223 | 0.0 | 0.0 | 0.00 | 0.00 | 0.00 | 974.8 | |
| 20260509101014 | 53 | 240 | 0.0 | 0.0 | 0.00 | 0.00 | 0.00 | 974.8 | |
| 20260509100517 | 53 | 193 | 0.0 | 0.0 | 0.00 | 0.00 | 0.00 | 974.8 | |
| 20260509100015 | 53 | 209 | 0.0 | 0.0 | 0.00 | 0.00 | 0.00 | 974.8 | |
| 20260509095515 | 54 | 204 | 0.0 | 0.0 | 0.00 | 0.00 | 0.00 | 974.8 | |
| 20260509095014 | 54 | 167 | 4.0 | 4.0 | 0.00 | 0.00 | 0.00 | 974.8 | |
| 20260509094514 | 54 | 230 | 0.0 | 0.0 | 0.00 | 0.00 | 0.00 | 974.8 | |
| 20260509094013 | 54 | 248 | 4.0 | 4.0 | 0.00 | 0.00 | 0.00 | 974.8 | |
| 20260509093515 | 54 | 226 | 4.0 | 3.0 | 0.00 | 0.00 | 0.00 | 974.8 | |
| 20260509093015 | 54 | 207 | 2.0 | 4.0 | 0.00 | 0.00 | 0.00 | 974.8 | |
| 20260509092534 | 54 | 209 | 0.0 | 0.0 | 0.00 | 0.00 | 0.00 | 974.8 | |
| 20260509092014 | 54 | 237 | 3.0 | 6.0 | 0.00 | 0.00 | 0.00 | 974.8 | |
| 20260509091515 | 54 | 190 | 4.0 | 4.0 | 0.00 | 0.00 | 0.00 | 975.8 | |
| 20260509091014 | 53 | 206 | 0.0 | 0.0 | 0.00 | 0.00 | 0.00 | 975.8 | |
| 20260509090540 | 53 | 176 | 3.0 | 0.0 | 0.00 | 0.00 | 0.00 | 975.8 | |
| 20260509090015 | 53 | 177 | 3.0 | 4.0 | 0.00 | 0.00 | 0.00 | 975.8 | |
| 20260509085513 | 53 | 225 | 4.0 | 4.0 | 0.00 | 0.00 | 0.00 | 975.8 | |
| 20260509085013 | 53 | 221 | 3.0 | 4.0 | 0.00 | 0.00 | 0.00 | 975.8 | |
| 20260509084515 | 53 | 163 | 0.0 | 0.0 | 0.00 | 0.00 | 0.00 | 975.8 | |
| 20260509084015 | 53 | 218 | 0.0 | 4.0 | 0.00 | 0.00 | 0.00 | 975.8 | |
| 20260509083514 | 53 | 210 | 4.0 | 4.0 | 0.00 | 0.00 | 0.00 | 975.8 | |
| 20260509083014 | 53 | 230 | 3.0 | 0.0 | 0.00 | 0.00 | 0.00 | 975.8 | |
| 20260509082513 | 53 | 219 | 3.0 | 0.0 | 0.00 | 0.00 | 0.00 | 975.8 | |
| 20260509082013 | 53 | 234 | 0.0 | 3.0 | 0.00 | 0.00 | 0.00 | 975.8 | |
| 20260509081516 | 53 | 196 | 3.0 | 4.0 | 0.00 | 0.00 | 0.00 | 975.8 | |
| 20260509081013 | 54 | 262 | 2.0 | 8.0 | 0.00 | 0.00 | 0.00 | 975.8 | |
| 20260509080513 | 54 | 222 | 0.0 | 0.0 | 0.00 | 0.00 | 0.00 | 975.8 | |
| 20260509080016 | 54 | 203 | 0.0 | 0.0 | 0.00 | 0.00 | 0.00 | 975.8 | |
| 20260509075518 | 54 | 244 | 3.0 | 4.0 | 0.00 | 0.00 | 0.00 | 975.8 | |
| 20260509075036 | 54 | 226 | 0.0 | 4.0 | 0.00 | 0.00 | 0.00 | 975.8 | |
| 20260509074514 | 54 | 213 | 0.0 | 0.0 | 0.00 | 0.00 | 0.00 | 975.8 | |
| 20260509074015 | 54 | 222 | 0.0 | 0.0 | 0.00 | 0.00 | 0.00 | 975.8 | |
| 20260509073514 | 54 | 198 | 0.0 | 0.0 | 0.00 | 0.00 | 0.00 | 975.8 | |
| 20260509073025 | 54 | 205 | 3.0 | 4.0 | 0.00 | 0.00 | 0.00 | 975.8 | |
| 20260509072526 | 54 | 217 | 0.0 | 3.0 | 0.00 | 0.00 | 0.00 | 975.8 | |
| 20260509072018 | 54 | 201 | 2.0 | 3.0 | 0.00 | 0.00 | 0.00 | 975.8 | |
| 20260509071515 | 54 | 246 | 4.0 | 4.0 | 0.00 | 0.00 | 0.00 | 976.8 | |
| 20260509071016 | 54 | 193 | 2.0 | 0.0 | 0.00 | 0.00 | 0.00 | 976.8 | |
| 20260509070514 | 54 | 239 | 3.0 | 3.0 | 0.00 | 0.00 | 0.00 | 976.8 | |
| 20260509070019 | 54 | 186 | 0.0 | 6.0 | 0.00 | 0.00 | 0.00 | 976.8 | |
| 20260509065517 | 54 | 216 | 0.0 | 0.0 | 0.00 | 0.00 | 0.00 | 976.8 | |
| 20260509065013 | 54 | 207 | 4.0 | 0.0 | 0.00 | 0.00 | 0.00 | 976.8 | |
| 20260509064518 | 54 | 188 | 5.0 | 3.0 | 0.00 | 0.00 | 0.00 | 976.8 | |
| 20260509064014 | 54 | 212 | 4.0 | 6.0 | 0.00 | 0.00 | 0.00 | 976.8 | |
| 20260509063513 | 54 | 223 | 4.0 | 0.0 | 0.00 | 0.00 | 0.00 | 976.8 | |
| 20260509063025 | 55 | 240 | 3.0 | 4.0 | 0.00 | 0.00 | 0.00 | 977.8 | |
| 20260509062535 | 55 | 223 | 3.0 | 5.0 | 0.00 | 0.00 | 0.00 | 977.8 | |
| 20260509062014 | 55 | 229 | 3.0 | 0.0 | 0.00 | 0.00 | 0.00 | 977.8 | |
| 20260509061517 | 55 | 220 | 3.0 | 0.0 | 0.00 | 0.00 | 0.00 | 977.8 | |
| 20260509061017 | 55 | 225 | 0.0 | 2.0 | 0.00 | 0.00 | 0.00 | 977.8 | |
| 20260509060518 | 55 | 186 | 0.0 | 0.0 | 0.00 | 0.00 | 0.00 | 977.8 | |
| 20260509060015 | 55 | 204 | 2.0 | 0.0 | 0.00 | 0.00 | 0.00 | 977.8 | |
| 20260509055520 | 55 | 185 | 0.0 | 0.0 | 0.00 | 0.00 | 0.00 | 977.8 | |
| 20260509055013 | 55 | 246 | 0.0 | 5.0 | 0.00 | 0.00 | 0.00 | 977.8 | |
| 20260509054520 | 55 | 219 | 2.0 | 4.0 | 0.00 | 0.00 | 0.00 | 977.8 | |
| 20260509054025 | 55 | 249 | 0.0 | 5.0 | 0.00 | 0.00 | 0.00 | 977.8 | |
| 20260509053513 | 55 | 202 | 3.0 | 2.0 | 0.00 | 0.00 | 0.00 | 977.8 | |
| 20260509053015 | 55 | 223 | 4.0 | 2.0 | 0.00 | 0.00 | 0.00 | 977.8 | |
| 20260509052514 | 55 | 212 | 2.0 | 0.0 | 0.00 | 0.00 | 0.00 | 977.8 | |
| 20260509052038 | 55 | 202 | 0.0 | 3.0 | 0.00 | 0.00 | 0.00 | 977.8 | |
| 20260509051514 | 56 | 189 | 0.0 | 3.0 | 0.00 | 0.00 | 0.00 | 977.8 | |
| 20260509051014 | 56 | 207 | 0.0 | 0.0 | 0.00 | 0.00 | 0.00 | 977.8 | |
| 20260509050514 | 56 | 204 | 2.0 | 5.0 | 0.00 | 0.00 | 0.00 | 977.8 | |
| 20260509050015 | 56 | 202 | 2.0 | 0.0 | 0.00 | 0.00 | 0.00 | 977.8 | |
| 20260509045513 | 56 | 203 | 3.0 | 3.0 | 0.00 | 0.00 | 0.00 | 977.8 | |
| 20260509045014 | 56 | 204 | 0.0 | 4.0 | 0.00 | 0.00 | 0.00 | 977.8 | |
| 20260509044514 | 56 | 199 | 0.0 | 0.0 | 0.00 | 0.00 | 0.00 | 977.8 | |
| 20260509044015 | 56 | 239 | 3.0 | 6.0 | 0.00 | 0.00 | 0.00 | 977.8 | |
| 20260509043515 | 56 | 204 | 3.0 | 0.0 | 0.00 | 0.00 | 0.00 | 977.8 | |
| 20260509043015 | 56 | 225 | 4.0 | 3.0 | 0.00 | 0.00 | 0.00 | 977.8 | |
| 20260509042535 | 56 | 226 | 0.0 | 0.0 | 0.00 | 0.00 | 0.00 | 977.8 | |
| 20260509042035 | 56 | 217 | 4.0 | 5.0 | 0.00 | 0.00 | 0.00 | 977.8 | |
| 20260509041516 | 56 | 198 | 3.0 | 5.0 | 0.00 | 0.00 | 0.00 | 977.8 | |
| 20260509041022 | 56 | 172 | 3.0 | 8.0 | 0.00 | 0.00 | 0.00 | 977.8 | |
| 20260509040515 | 56 | 216 | 0.0 | 0.0 | 0.00 | 0.00 | 0.00 | 977.8 | |
| 20260509040020 | 55 | 157 | 4.0 | 0.0 | 0.00 | 0.00 | 0.00 | 977.8 | |
| 20260509035518 | 55 | 181 | 0.0 | 0.0 | 0.00 | 0.00 | 0.00 | 977.8 | |
| 20260509035040 | 55 | 196 | 2.0 | 5.0 | 0.00 | 0.00 | 0.00 | 977.8 | |
| 20260509034518 | 55 | 187 | 6.0 | 0.0 | 0.00 | 0.00 | 0.00 | 977.8 | |
| 20260509034016 | 55 | 172 | 0.0 | 0.0 | 0.00 | 0.00 | 0.00 | 977.8 | |
| 20260509033543 | 54 | 222 | 0.0 | 2.0 | 0.00 | 0.00 | 0.00 | 977.8 | |
| 20260509033015 | 54 | 194 | 0.0 | 0.0 | 0.00 | 0.00 | 0.00 | 977.8 | |
| 20260509032515 | 54 | 192 | 0.0 | 0.0 | 0.00 | 0.00 | 0.00 | 977.8 | |
| 20260509032036 | 55 | 206 | 0.0 | 0.0 | 0.00 | 0.00 | 0.00 | 977.8 | |
| 20260509031534 | 55 | 206 | 0.0 | 0.0 | 0.00 | 0.00 | 0.00 | 977.8 | |
| 20260509031017 | 55 | 206 | 0.0 | 0.0 | 0.00 | 0.00 | 0.00 | 977.8 | |
| 20260509030516 | 55 | 206 | 0.0 | 0.0 | 0.00 | 0.00 | 0.00 | 977.8 | |
| 20260509030017 | 55 | 206 | 0.0 | 0.0 | 0.00 | 0.00 | 0.00 | 978.8 | |
| 20260509025514 | 55 | 140 | 0.0 | 0.0 | 0.00 | 0.00 | 0.00 | 978.8 | |
| 20260509025020 | 55 | 141 | 0.0 | 0.0 | 0.00 | 0.00 | 0.00 | 978.8 | |
| 20260509024514 | 56 | 141 | 0.0 | 0.0 | 0.00 | 0.00 | 0.00 | 978.8 | |
| 20260509024016 | 56 | 141 | 0.0 | 0.0 | 0.00 | 0.00 | 0.00 | 978.8 | |
| 20260509023524 | 56 | 141 | 0.0 | 0.0 | 0.00 | 0.00 | 0.00 | 978.8 | |
| 20260509023014 | 56 | 141 | 0.0 | 0.0 | 0.00 | 0.00 | 0.00 | 978.8 | |
| 20260509022516 | 56 | 141 | 0.0 | 0.0 | 0.00 | 0.00 | 0.00 | 978.8 | |
| 20260509022014 | 56 | 141 | 0.0 | 0.0 | 0.00 | 0.00 | 0.00 | 978.8 | |
| 20260509021514 | 56 | 141 | 0.0 | 0.0 | 0.00 | 0.00 | 0.00 | 978.8 | |
| 20260509021017 | 56 | 141 | 0.0 | 0.0 | 0.00 | 0.00 | 0.00 | 978.8 | |
| 20260509020514 | 56 | 141 | 0.0 | 0.0 | 0.00 | 0.00 | 0.00 | 978.8 | |
| 20260509020025 | 56 | 141 | 0.0 | 0.0 | 0.00 | 0.00 | 0.00 | 978.8 | |
| 20260509015516 | 57 | 141 | 0.0 | 0.0 | 0.00 | 0.00 | 0.00 | 978.8 | |
| 20260509015014 | 57 | 141 | 0.0 | 0.0 | 0.00 | 0.00 | 0.00 | 978.8 | |
| 20260509014515 | 57 | 141 | 0.0 | 0.0 | 0.00 | 0.00 | 0.00 | 978.8 | |
| 20260509014013 | 57 | 141 | 0.0 | 0.0 | 0.00 | 0.00 | 0.00 | 978.8 | |
| 20260509013536 | 57 | 141 | 0.0 | 0.0 | 0.00 | 0.00 | 0.00 | 978.8 | |
| 20260509013013 | 58 | 141 | 0.0 | 0.0 | 0.00 | 0.00 | 0.00 | 978.8 | |
| 20260509012513 | 58 | 141 | 0.0 | 0.0 | 0.00 | 0.00 | 0.00 | 978.8 |